Weather History for Colby, KS

Change the Weather History Date:

Thursday, December 13, 2012

  Actual Average (KGLD) Record (KGLD)
Temperature  
Mean Temperature 44 °F 30 °F  
Max Temperature 59 °F 42 °F 74 °F (1988)
Min Temperature 28 °F 17 °F -9 °F (1963)
Degree Days  
Heating Degree Days 22 35  
Month to date heating degree days 445  
Since 1 July heating degree days 1764  
Cooling Degree Days 0 0  
Month to date cooling degree days 0  
Year to date cooling degree days 941  
Moisture  
Dew Point 21 °F    
Average Humidity 49    
Maximum Humidity 64    
Minimum Humidity 27    
Precipitation  
Precipitation 0.00 in 0.01 in 0.53 in (1984)
Month to date precipitation 0.20  
Year to date precipitation 19.40  
Snow  
Snow 0.00 in 0.20 in - ()
Month to date snowfall 2.3  
Since 1 July snowfall 9.5  
Snow Depth -    
Sea Level Pressure  
Sea Level Pressure 29.97 in    
Wind  
Wind Speed 7 mph (NNE)    
Max Wind Speed 13 mph    
Max Gust Speed 16 mph    
Visibility 10 miles    
Events      
T = Trace of Precipitation, MM = Missing Value Source: NWS Daily Summary

Daily Weather History Graph

Daily Weather History Graph

Search for Another Location

Airport:

Trip Planner

Search our weather history database for the weather conditions in past years. The results will help you decide how hot, cold, wet, or windy it might be!

Date:

Astronomy

Dec. 13, 2012 Rise Set
Actual Time 7:56 AM CST 5:21 PM CST
Civil Twilight 7:25 AM CST 5:51 PM CST
Nautical Twilight 6:52 AM CST 6:25 PM CST
Astronomical Twilight 6:19 AM CST 6:57 PM CST
Moon 8:06 AM CST (12/13) 6:05 PM CST (12/13)
Length of Visible Light 10h 25m
Length of Day
9h 25m
New Moon, 0% of the Moon is Illuminated
Dec 13
New Moon
Dec 19
First Quarter
Dec 28
Full
Jan 4
Last Quarter
Jan 11
New

Hourly Weather History & Observations

Time (CST) Temp. Windchill Dew Point Humidity Pressure Visibility Wind Dir Wind Speed Gust Speed Precip Events Conditions
12:15 AM 32.0 °F 24.8 °F 17.6 °F 55% 29.89 in 10.0 mi West 8.1 mph - N/A   Clear
12:35 AM 32.0 °F 24.8 °F 17.6 °F 55% 29.90 in 10.0 mi WSW 8.1 mph - N/A   Clear
12:55 AM 32.0 °F 26.4 °F 17.6 °F 55% 29.90 in 10.0 mi WSW 5.8 mph - N/A   Clear
1:15 AM 32.0 °F 26.4 °F 17.6 °F 55% 29.90 in 10.0 mi WSW 5.8 mph - N/A   Clear
1:35 AM 32.0 °F 27.5 °F 17.6 °F 55% 29.91 in 10.0 mi SSW 4.6 mph - N/A   Clear
1:55 AM 32.0 °F 24.2 °F 17.6 °F 55% 29.91 in 10.0 mi West 9.2 mph - N/A   Clear
2:15 AM 33.8 °F 25.3 °F 19.4 °F 56% 29.91 in 10.0 mi WNW 11.5 mph - N/A   Clear
2:35 AM 33.8 °F 26.4 °F 19.4 °F 56% 29.92 in 10.0 mi WNW 9.2 mph - N/A   Clear
2:55 AM 33.8 °F 26.4 °F 19.4 °F 56% 29.93 in 10.0 mi NW 9.2 mph - N/A   Clear
3:15 AM 33.8 °F 25.8 °F 19.4 °F 56% 29.93 in 10.0 mi NW 10.4 mph - N/A   Clear
3:35 AM 33.8 °F 27.7 °F 19.4 °F 56% 29.93 in 10.0 mi WNW 6.9 mph - N/A   Clear
3:55 AM 33.8 °F 28.6 °F 19.4 °F 56% 29.93 in 10.0 mi WNW 5.8 mph - N/A   Clear
4:15 AM 32.0 °F 25.6 °F 17.6 °F 55% 29.93 in 10.0 mi WNW 6.9 mph - N/A   Clear
4:35 AM 32.0 °F 25.6 °F 17.6 °F 55% 29.93 in 10.0 mi NW 6.9 mph - N/A   Clear
4:55 AM 32.0 °F 24.8 °F 19.4 °F 60% 29.93 in 10.0 mi NNW 8.1 mph - N/A   Clear
5:15 AM 35.6 °F 29.9 °F 19.4 °F 52% 29.93 in 10.0 mi NNW 6.9 mph - N/A   Clear
5:35 AM 35.6 °F 29.2 °F 19.4 °F 52% 29.94 in 10.0 mi NNW 8.1 mph - N/A   Clear
5:55 AM 35.6 °F 29.9 °F 19.4 °F 52% 29.95 in 10.0 mi North 6.9 mph - N/A   Clear
6:15 AM 33.8 °F 27.7 °F 19.4 °F 56% 29.96 in 10.0 mi NW 6.9 mph - N/A   Clear
6:35 AM 33.8 °F 27.0 °F 19.4 °F 56% 29.96 in 10.0 mi North 8.1 mph - N/A   Clear
6:55 AM 35.6 °F 29.9 °F 19.4 °F 52% 29.96 in 10.0 mi North 6.9 mph - N/A   Clear
7:15 AM 37.4 °F 32.1 °F 19.4 °F 48% 29.97 in 10.0 mi North 6.9 mph - N/A   Clear
7:35 AM 32.0 °F 26.4 °F 17.6 °F 55% 29.98 in 10.0 mi NW 5.8 mph - N/A   Clear
7:55 AM 32.0 °F 24.8 °F 17.6 °F 55% 29.99 in 10.0 mi NNW 8.1 mph - N/A   Clear
8:15 AM 32.0 °F 27.5 °F 17.6 °F 55% 30.00 in 10.0 mi NNW 4.6 mph - N/A   Clear
8:35 AM 30.2 °F 24.3 °F 17.6 °F 60% 30.01 in 10.0 mi NNW 5.8 mph - N/A   Clear
8:55 AM 28.4 °F 22.2 °F 17.6 °F 64% 30.02 in 10.0 mi WSW 5.8 mph - N/A   Clear
9:15 AM 32.0 °F 27.5 °F 19.4 °F 60% 30.03 in 10.0 mi WNW 4.6 mph - N/A   Clear
9:35 AM 35.6 °F 29.9 °F 21.2 °F 56% 30.04 in 10.0 mi NW 6.9 mph - N/A   Clear
9:55 AM 41.0 °F 38.0 °F 23.0 °F 49% 30.04 in 10.0 mi North 4.6 mph - N/A   Clear
10:15 AM 46.4 °F 45.2 °F 23.0 °F 40% 30.04 in 10.0 mi NNE 3.5 mph - N/A   Clear
10:35 AM 46.4 °F 45.2 °F 23.0 °F 40% 30.05 in 10.0 mi NE 3.5 mph - N/A   Clear
10:55 AM 50.0 °F - 23.0 °F 35% 30.05 in 10.0 mi ENE 4.6 mph - N/A   Clear
11:15 AM 51.8 °F - 24.8 °F 35% 30.05 in 10.0 mi East 9.2 mph - N/A   Clear
11:35 AM 53.6 °F - 26.6 °F 35% 30.04 in 10.0 mi East 10.4 mph 16.1 mph N/A   Clear
11:55 AM 55.4 °F - 26.6 °F 33% 30.04 in 10.0 mi ENE 11.5 mph - N/A   Clear
12:15 PM 55.4 °F - 26.6 °F 33% 30.03 in 10.0 mi East 10.4 mph - N/A   Clear
12:35 PM 55.4 °F - 26.6 °F 33% 30.03 in 10.0 mi East 10.4 mph - N/A   Clear
12:55 PM 57.2 °F - 26.6 °F 31% 30.02 in 10.0 mi East 10.4 mph - N/A   Clear
1:15 PM 59.0 °F - 26.6 °F 29% 30.01 in 10.0 mi East 11.5 mph - N/A   Clear
1:35 PM 59.0 °F - 24.8 °F 27% 30.00 in 10.0 mi East 12.7 mph - N/A   Clear
1:55 PM 57.2 °F - 26.6 °F 31% 29.99 in 10.0 mi East 12.7 mph - N/A   Clear
2:15 PM 59.0 °F - 26.6 °F 29% 29.99 in 10.0 mi East 12.7 mph - N/A   Clear
2:35 PM 59.0 °F - 24.8 °F 27% 29.98 in 10.0 mi East 9.2 mph - N/A   Clear
2:55 PM 59.0 °F - 26.6 °F 29% 29.98 in 10.0 mi East 12.7 mph - N/A   Clear
3:15 PM 59.0 °F - 26.6 °F 29% 29.98 in 10.0 mi East 12.7 mph - N/A   Clear
3:35 PM 57.2 °F - 26.6 °F 31% 29.98 in 10.0 mi ESE 11.5 mph - N/A   Clear
3:55 PM 59.0 °F - 26.6 °F 29% 29.97 in 10.0 mi ESE 12.7 mph - N/A   Clear
6:15 PM 37.4 °F 30.3 °F 19.4 °F 48% 29.97 in 10.0 mi ESE 10.4 mph - N/A   Clear
6:55 PM 37.4 °F 30.8 °F 21.2 °F 52% 29.97 in 10.0 mi ESE 9.2 mph - N/A   Clear
7:15 PM 35.6 °F 29.2 °F 21.2 °F 56% 29.98 in 10.0 mi ESE 8.1 mph - N/A   Clear
7:55 PM 37.4 °F 32.8 °F 21.2 °F 52% 29.98 in 10.0 mi ESE 5.8 mph - N/A   Clear
8:15 PM 35.6 °F 28.6 °F 21.2 °F 56% 29.97 in 10.0 mi ESE 9.2 mph - N/A   Clear
8:35 PM 33.8 °F 29.6 °F 19.4 °F 56% 29.98 in 10.0 mi SE 4.6 mph - N/A   Clear
8:55 PM 35.6 °F - 21.2 °F 56% 29.98 in 10.0 mi Calm Calm - N/A   Clear
9:15 PM 35.6 °F 32.8 °F 21.2 °F 56% 29.97 in 10.0 mi ESE 3.5 mph - N/A   Clear
9:35 PM 35.6 °F 31.7 °F 21.2 °F 56% 29.96 in 10.0 mi ESE 4.6 mph - N/A   Clear
9:55 PM 33.8 °F 30.8 °F 21.2 °F 60% 29.96 in 10.0 mi East 3.5 mph - N/A   Clear
10:15 PM 32.0 °F - 19.4 °F 60% 29.96 in 10.0 mi Calm Calm - N/A   Clear
10:35 PM 33.8 °F - 21.2 °F 60% 29.97 in 10.0 mi Calm Calm - N/A   Clear
10:55 PM 28.4 °F - 17.6 °F 64% 29.96 in 10.0 mi Calm Calm - N/A   Clear
11:15 PM 28.4 °F - 17.6 °F 64% 29.95 in 10.0 mi Calm Calm - N/A   Clear
11:55 PM 32.0 °F 28.7 °F 21.2 °F 64% 29.93 in 10.0 mi NW 3.5 mph - N/A   Clear